Location: Kouchibouguac National Park
(46.8081°N, 64.9088°W)
Time: 12:52:02
(UTC-04:00)

Amateur Radio Satellites - All Passes

Search period start: 26 February 2017 12:22
Search period end: 27 February 2017 12:22
Location: Kouchibouguac National Park, 46.8081°N, 64.9088°W

Satellite Date Start Highest point End Downlink Frequencies (MHz)
Time Altitude Azimuth
ESTCUBE 1 26 Feb 12:22:19 12:26:44 59° 288° (WNW) 12:31:07 437.505/2401.250
DUCHIFAT 1 26 Feb 12:28:47 12:31:38 17° 269° (W) 12:34:30 145.980
50 SAT 26 Feb 12:29:09 12:32:26 38° 99° (E) 12:35:41 437.505
DX 1 26 Feb 12:31:17 12:35:03 27° 96° (E) 12:38:47 434.975-435.025
UKube-1 26 Feb 12:41:19 12:44:56 25° 95° (E) 12:48:31 .
EO-79 26 Feb 12:42:38 12:43:58 11° 272° (W) 12:45:18 145.935-145.965
VELOX 1 26 Feb 12:42:53 12:47:19 80° 104° (ESE) 12:51:45 145.980
SPROUT 26 Feb 12:42:53 12:47:12 68° 102° (ESE) 12:51:29 437.525
AO-85 26 Feb 12:52:48 12:56:43 76° 234° (SW) 13:00:39 145.980
YUBILEINY 26 Feb 12:55:00 13:01:29 22° 302° (WNW) 13:07:58 435.215
AO-7 26 Feb 12:55:10 13:01:33 25° 48° (NE) 13:07:55 .
ITAMSAT 1 26 Feb 12:55:31 12:58:05 14° 54° (NE) 13:00:39 435.822/435.867
ISS 26 Feb 12:58:55 13:02:14 70° 23° (NNE) 13:05:31 437.550
Gurwin Techsat 1B 26 Feb 13:09:48 13:15:05 75° 73° (ENE) 13:20:25 435.225
Tancredo 1 26 Feb 13:21:59 13:25:14 81° 208° (SSW) 13:28:26 437.200
BEESAT 3 26 Feb 13:22:26 13:25:35 21° 38° (NE) 13:28:44 437.485
BUGSAT 1 26 Feb 13:22:30 13:24:21 13° 271° (W) 13:26:13 437.445
Oscar 19 26 Feb 13:56:41 14:00:58 26° 266° (W) 14:05:16 437.125/150
BEESAT 2 26 Feb 14:03:06 14:06:24 23° 39° (NE) 14:09:42 435.950
50 SAT 26 Feb 14:03:07 14:05:16 16° 296° (WNW) 14:07:26 437.505
DX 1 26 Feb 14:07:21 14:11:15 32° 293° (WNW) 14:15:07 434.975-435.025
UKube-1 26 Feb 14:17:06 14:21:01 35° 292° (WNW) 14:24:55 .
SPROUT 26 Feb 14:20:11 14:22:36 15° 300° (WNW) 14:25:01 437.525
VELOX 1 26 Feb 14:21:00 14:23:10 14° 302° (WNW) 14:25:20 145.980
ITAMSAT 1 26 Feb 14:31:30 14:36:43 80° 73° (ENE) 14:41:59 435.822/435.867
ISS 26 Feb 14:35:47 14:38:27 23° 221° (SW) 14:41:05 437.550
AO-7 26 Feb 14:44:54 14:53:17 87° 69° (ENE) 15:01:42 .
ITUPSAT 1 26 Feb 14:46:33 14:51:02 37° 97° (E) 14:55:28 437.325
PCSat 26 Feb 14:48:08 14:50:11 12° 102° (ESE) 14:52:14 145.827
BEESAT 26 Feb 14:52:17 14:56:52 43° 99° (E) 15:01:24 436.000
Gurwin Techsat 1B 26 Feb 14:52:20 14:55:37 16° 271° (W) 14:58:56 435.225
Tancredo 1 26 Feb 14:59:17 15:01:03 14° 225° (SW) 15:02:48 437.200
BEESAT 3 26 Feb 14:59:33 15:03:31 58° 238° (WSW) 15:07:27 437.485
MOZHAYETS 4 26 Feb 15:03:12 15:06:49 22° 92° (E) 15:10:23
BEESAT 2 26 Feb 15:40:29 15:44:27 53° 238° (WSW) 15:48:23 435.950
CUTE-I 26 Feb 15:52:05 15:54:09 12° 52° (NE) 15:56:13 437.470
CUBESAT XI-V 26 Feb 16:06:15 16:09:13 17° 90° (E) 16:12:10 437.345
XW-2C 26 Feb 16:10:34 16:10:51 10° 59° (ENE) 16:11:09 145.795 - 145.815
ITAMSAT 1 26 Feb 16:13:54 16:16:49 15° 272° (W) 16:19:45 435.822/435.867
RS-15 26 Feb 16:19:17 16:29:32 35° 105° (ESE) 16:40:03 29.354- 29.394
ITUPSAT 1 26 Feb 16:24:37 16:28:44 29° 296° (WNW) 16:32:50 437.325
LilacSat-2 26 Feb 16:26:30 16:28:52 16° 63° (ENE) 16:31:15 437.200
PCSat 26 Feb 16:27:15 16:32:39 78° 120° (ESE) 16:38:07 145.827
BEESAT 26 Feb 16:30:31 16:34:25 26° 297° (WNW) 16:38:19 436.000
MOZHAYETS 4 26 Feb 16:39:47 16:44:10 44° 290° (WNW) 16:48:31
AO-7 26 Feb 16:40:50 16:47:03 23° 270° (W) 16:53:19 .
KKS-1 26 Feb 17:01:08 17:05:39 86° 108° (ESE) 17:10:08 437.445
KAITUO 1B 26 Feb 17:14:42 17:18:15 38° 71° (ENE) 17:21:50 145.475/437.950
DOVE 4 26 Feb 17:17:14 17:21:17 56° 73° (ENE) 17:25:26 437.250
XW-2F 26 Feb 17:21:25 17:25:10 55° 73° (ENE) 17:28:58 145.980 - 146.000
NO-84 26 Feb 17:26:31 17:29:46 77° 143° (SE) 17:33:23 435.350 FM
XW-2D 26 Feb 17:26:48 17:30:38 67° 74° (ENE) 17:34:29 145.860 - 145.880
CUTE-I 26 Feb 17:27:56 17:33:14 69° 72° (ENE) 17:38:35 437.470
STARS 26 Feb 17:31:32 17:36:01 82° 103° (ESE) 17:40:27 437.465
XW-2B 26 Feb 17:31:52 17:35:43 75° 75° (ENE) 17:39:35 145.730 - 145.750
M-CUBED/EXP-1 PRIME 26 Feb 17:32:47 17:36:15 33° 104° (ESE) 17:39:56 437.505
XW-2C 26 Feb 17:40:34 17:44:25 86° 257° (WSW) 17:48:19 145.795 - 145.815
CUBESAT XI-V 26 Feb 17:42:27 17:46:59 58° 288° (WNW) 17:51:29 437.345
NUDT-PHONESAT 26 Feb 17:47:46 17:51:32 86° 257° (WSW) 17:55:21 437.300
HO-68 26 Feb 17:51:49 17:58:15 38° 60° (ENE) 18:04:42 435.675
CUBEBUG 2 26 Feb 17:54:32 17:55:19 10° 55° (NE) 17:56:07 437.445
LilacSat-2 26 Feb 17:58:59 18:02:46 50° 260° (W) 18:06:35 437.200
PCSat 26 Feb 18:12:18 18:16:40 24° 322° (NW) 18:21:03 145.827
SEEDS 26 Feb 18:14:36 18:17:42 20° 64° (ENE) 18:20:47 437.485
UWE-3 26 Feb 18:27:18 18:29:41 14° 58° (ENE) 18:32:06 435.000/436.395/437.385
RS-15 26 Feb 18:28:50 18:40:56 80° 309° (NW) 18:53:26 29.354- 29.394
KKS-1 26 Feb 18:39:30 18:41:33 13° 303° (WNW) 18:43:37 437.445
XW-2A 26 Feb 18:39:33 18:42:56 75° 77° (ENE) 18:46:23 145.665 - 145.685
STRAND 1 26 Feb 18:40:13 18:43:45 18° 90° (E) 18:47:15 437.568
ZACube-1 26 Feb 18:45:31 18:47:39 13° 58° (ENE) 18:49:48 437.345
KAITUO 1B 26 Feb 18:49:48 18:52:27 18° 268° (W) 18:55:07 145.475/437.950
CUTE 1.7 + AOD 2 26 Feb 18:54:07 18:58:23 72° 75° (ENE) 19:02:39 437.475
DOVE 4 26 Feb 18:57:12 18:59:25 14° 271° (W) 19:01:41 437.250
XW-2F 26 Feb 18:57:48 18:59:40 13° 271° (W) 19:01:33 145.980 - 146.000
XW-2D 26 Feb 19:04:16 19:05:17 11° 272° (W) 19:06:18 145.860 - 145.880
NO-84 26 Feb 19:04:40 19:07:46 29° 345° (NNW) 19:11:08 435.350 FM
YUBILEINY 26 Feb 19:06:31 19:10:31 14° 49° (NE) 19:14:30 435.215
M-CUBED/EXP-1 PRIME 26 Feb 19:07:33 19:10:37 24° 298° (WNW) 19:13:52 437.505
STARS 26 Feb 19:09:36 19:11:45 13° 302° (WNW) 19:13:52 437.465
CUTE-I 26 Feb 19:10:10 19:13:48 18° 270° (W) 19:17:27 437.470
CUBEBUG 2 26 Feb 19:26:34 19:31:02 73° 75° (ENE) 19:35:41 437.445
AO-73 26 Feb 19:30:57 19:34:53 31° 67° (ENE) 19:38:53 145.935
AAUSAT CUBESAT 2 26 Feb 19:33:56 19:38:03 65° 74° (ENE) 19:42:10 437.432
Oscar 11 26 Feb 19:36:06 19:39:53 29° 67° (ENE) 19:43:40 .
HO-68 26 Feb 19:38:50 19:45:47 52° 260° (W) 19:52:46 435.675
SEEDS 26 Feb 19:49:03 19:53:06 44° 262° (W) 19:57:10 437.485
UWE-3 26 Feb 20:00:59 20:05:28 80° 258° (WSW) 20:10:07 435.000/436.395/437.385
STRAND 1 26 Feb 20:18:16 20:23:23 65° 289° (WNW) 20:28:28 437.568
ZACube-1 26 Feb 20:18:45 20:23:14 86° 254° (WSW) 20:27:51 437.345
CUTE 1.7 + AOD 2 26 Feb 20:32:58 20:34:42 12° 272° (W) 20:36:27 437.475
NO-84 26 Feb 20:43:12 20:46:18 24° 7° (N) 20:49:38 435.350 FM
RS-15 26 Feb 20:44:25 20:55:39 39° 339° (NNW) 21:07:01 29.354- 29.394
DELFI C3 26 Feb 20:53:51 20:57:45 60° 74° (ENE) 21:01:39 145.870
YUBILEINY 26 Feb 21:01:08 21:09:44 56° 74° (ENE) 21:18:14 435.215
CUBEBUG 2 26 Feb 21:06:00 21:08:14 13° 273° (W) 21:10:29 437.445
AO-73 26 Feb 21:07:04 21:11:04 32° 265° (W) 21:15:09 145.935
AAUSAT CUBESAT 2 26 Feb 21:12:03 21:13:57 13° 271° (W) 21:15:50 437.432
Oscar 11 26 Feb 21:12:06 21:15:57 30° 264° (W) 21:19:51 .
LO-87 26 Feb 21:12:28 21:14:03 13° 62° (ENE) 21:15:38 145.935 - 145.965
PRISM 26 Feb 21:27:26 21:31:12 34° 98° (E) 21:34:56 437.425
SO-50 26 Feb 21:27:31 21:31:15 24° 114° (ESE) 21:34:58 436.795
ESTCUBE 1 26 Feb 21:48:48 21:52:16 22° 63° (ENE) 21:55:43 437.505/2401.250
STRAND 1 26 Feb 22:00:10 22:01:35 11° 308° (NW) 22:03:00 437.568
FO-29 26 Feb 22:00:37 22:06:56 27° 88° (E) 22:12:45 435.910
TIGRISAT 26 Feb 22:04:45 22:09:10 38° 97° (E) 22:13:30 435.000
UNISAT 6 26 Feb 22:04:54 22:09:21 41° 97° (E) 22:13:46 437.425
O/OREOS (USA 219) 26 Feb 22:08:15 22:12:09 30° 105° (ESE) 22:16:05 437.305
VELOX 1 26 Feb 22:09:10 22:11:11 13° 58° (ENE) 22:13:11 145.980
NO-84 26 Feb 22:20:50 22:24:39 48° 27° (NNE) 22:28:45 435.350 FM
DELFI C3 26 Feb 22:31:12 22:32:56 12° 271° (W) 22:34:40 145.870
LO-87 26 Feb 22:43:37 22:47:05 53° 260° (W) 22:50:35 145.935 - 145.965
EO-79 26 Feb 22:48:06 22:48:41 10° 87° (E) 22:49:16 145.935-145.965
YUBILEINY 26 Feb 22:58:29 23:06:10 37° 276° (W) 23:13:50 435.215
RS-15 26 Feb 23:01:24 23:12:29 35° 13° (NNE) 23:23:25 29.354- 29.394
NANOSAT C BR1 26 Feb 23:02:34 23:04:51 14° 89° (E) 23:07:06 145.865
PRISM 26 Feb 23:03:04 23:06:20 23° 295° (WNW) 23:09:35 437.425
POLYITAN 1 26 Feb 23:04:17 23:06:58 16° 90° (E) 23:09:38 437.675
50 SAT 26 Feb 23:06:06 23:08:59 25° 68° (ENE) 23:11:53 437.505
SO-50 26 Feb 23:06:53 23:11:27 52° 313° (NW) 23:15:58 436.795
QB50P2 26 Feb 23:07:04 23:10:04 18° 91° (E) 23:13:03 145.880/145.840
ESTCUBE 1 26 Feb 23:24:27 23:28:47 46° 261° (W) 23:33:08 437.505/2401.250
DX 1 26 Feb 23:29:21 23:33:16 35° 68° (ENE) 23:37:13 434.975-435.025
PCSat 26 Feb 23:29:24 23:33:53 25° 39° (NE) 23:38:21 145.827
AIST 2D 26 Feb 23:36:06 23:39:38 55° 100° (E) 23:43:07 435.315
UKube-1 26 Feb 23:38:20 23:42:09 31° 67° (ENE) 23:45:57 .
SPROUT 26 Feb 23:38:40 23:42:55 73° 73° (ENE) 23:47:11 437.525
TIGRISAT 26 Feb 23:41:42 23:45:41 28° 295° (WNW) 23:49:37 435.000
UNISAT 6 26 Feb 23:41:59 23:45:52 26° 296° (WNW) 23:49:43 437.425
VELOX 1 26 Feb 23:42:37 23:47:00 82° 259° (W) 23:51:25 145.980
FO-29 26 Feb 23:44:56 23:52:36 69° 290° (WNW) 23:59:33 435.910
O/OREOS (USA 219) 26 Feb 23:47:25 23:51:29 33° 304° (NW) 23:55:36 437.305
NO-84 26 Feb 23:58:33 00:02:21 38° 224° (SW) 00:06:23 435.350 FM
DUCHIFAT 1 27 Feb 00:08:01 00:12:16 60° 101° (ESE) 00:16:28 145.980
EO-79 27 Feb 00:20:44 00:25:03 85° 281° (W) 00:29:20 145.935-145.965
Oscar 19 27 Feb 00:27:07 00:29:03 12° 87° (E) 00:30:59 437.125/150
BEESAT 27 Feb 00:27:55 00:29:02 11° 54° (NE) 00:30:10 436.000
NANOSAT C BR1 27 Feb 00:36:44 00:40:59 63° 286° (WNW) 00:45:11 145.865
POLYITAN 1 27 Feb 00:38:53 00:43:06 55° 288° (WNW) 00:47:17 437.675
50 SAT 27 Feb 00:39:13 00:42:04 23° 265° (W) 00:44:55 437.505
QB50P2 27 Feb 00:41:59 00:46:08 48° 289° (WNW) 00:50:15 145.880/145.840
SO-50 27 Feb 00:50:26 00:52:56 14° 334° (NNW) 00:55:27 436.795
BUGSAT 1 27 Feb 00:58:20 01:02:36 75° 101° (ESE) 01:06:51 437.445
DX 1 27 Feb 01:05:56 01:09:31 25° 265° (W) 01:13:08 434.975-435.025
AIST 2D 27 Feb 01:10:52 01:12:25 12° 298° (WNW) 01:13:58 435.315
PCSat 27 Feb 01:12:23 01:17:49 72° 240° (WSW) 01:23:13 145.827
UKube-1 27 Feb 01:14:28 01:18:10 28° 264° (W) 01:21:54 .
RS-15 27 Feb 01:15:33 01:27:55 66° 44° (NE) 01:39:49 29.354- 29.394
SPROUT 27 Feb 01:17:42 01:19:21 12° 272° (W) 01:20:59 437.525
Gurwin Techsat 1B 27 Feb 01:23:38 01:27:53 23° 92° (E) 01:32:05 435.225
FO-29 27 Feb 01:31:24 01:36:11 18° 311° (NW) 01:40:48 435.910
DUCHIFAT 1 27 Feb 01:44:50 01:47:29 16° 299° (WNW) 01:50:07 145.980
ITUPSAT 1 27 Feb 01:55:47 02:00:30 61° 72° (ENE) 02:05:17 437.325
EO-79 27 Feb 01:58:58 02:00:06 11° 303° (WNW) 02:01:13 145.935-145.965
BEESAT 27 Feb 02:01:10 02:05:56 70° 73° (ENE) 02:10:43 436.000
Oscar 19 27 Feb 02:03:58 02:09:07 87° 101° (E) 02:14:16 437.125/150
MOZHAYETS 4 27 Feb 02:07:33 02:11:35 30° 66° (ENE) 02:15:39
KKS-1 27 Feb 02:27:41 02:30:07 15° 59° (ENE) 02:32:34 437.445
BUGSAT 1 27 Feb 02:35:18 02:37:24 14° 300° (WNW) 02:39:30 437.445
ITAMSAT 1 27 Feb 02:42:06 02:46:10 22° 92° (E) 02:50:12 435.822/435.867
AO-7 27 Feb 02:44:14 02:50:35 24° 91° (E) 02:56:54 .
STARS 27 Feb 02:57:07 02:59:16 14° 58° (ENE) 03:01:24 437.465
PCSat 27 Feb 02:58:48 03:00:14 11° 259° (W) 03:01:40 145.827
Gurwin Techsat 1B 27 Feb 03:02:57 03:08:08 53° 291° (WNW) 03:13:17 435.225
AO-85 27 Feb 03:11:01 03:13:50 16° 113° (ESE) 03:16:34 145.980
CUBESAT XI-V 27 Feb 03:12:02 03:15:45 24° 64° (ENE) 03:19:26 437.345
RS-15 27 Feb 03:28:40 03:40:04 48° 250° (WSW) 03:51:03 29.354- 29.394
ITUPSAT 1 27 Feb 03:35:32 03:38:45 18° 269° (W) 03:41:59 437.325
BEESAT 27 Feb 03:41:24 03:44:12 15° 271° (W) 03:47:01 436.000
MOZHAYETS 4 27 Feb 03:44:29 03:48:41 33° 264° (W) 03:52:54
Oscar 19 27 Feb 03:44:50 03:47:45 16° 304° (WNW) 03:50:41 437.125/150
KKS-1 27 Feb 04:01:42 04:06:07 74° 257° (WSW) 04:10:35 437.445
SO-50 27 Feb 04:15:43 04:18:03 14° 25° (NNE) 04:20:22 436.795
ITAMSAT 1 27 Feb 04:20:50 04:25:57 54° 291° (WNW) 04:31:02 435.822/435.867
M-CUBED/EXP-1 PRIME 27 Feb 04:22:00 04:25:14 66° 69° (ENE) 04:28:31 437.505
STARS 27 Feb 04:30:37 04:35:00 80° 257° (WSW) 04:39:25 437.465
AO-7 27 Feb 04:35:57 04:44:19 84° 291° (WNW) 04:52:36 .
CUBESAT XI-V 27 Feb 04:48:27 04:52:52 43° 262° (W) 04:57:20 437.345
AO-85 27 Feb 04:49:25 04:53:52 66° 309° (NW) 04:58:02 145.980
BEESAT 3 27 Feb 04:55:17 04:55:53 10° 108° (ESE) 04:56:31 437.485
DOVE 4 27 Feb 05:13:32 05:16:04 14° 89° (E) 05:18:40 437.250
LilacSat-2 27 Feb 05:30:33 05:32:40 14° 90° (E) 05:34:48 437.200
BEESAT 2 27 Feb 05:36:37 05:38:15 12° 109° (ESE) 05:39:52 435.950
CUTE-I 27 Feb 05:42:42 05:46:48 22° 91° (E) 05:50:53 437.470
SO-50 27 Feb 05:55:10 05:59:35 50° 47° (NE) 06:03:57 436.795
STRAND 1 27 Feb 05:58:27 06:03:05 35° 66° (ENE) 06:07:46 437.568
KAITUO 1B 27 Feb 06:17:00 06:20:31 36° 97° (E) 06:23:59 145.475/437.950
XW-2F 27 Feb 06:24:49 06:28:35 53° 100° (E) 06:32:17 145.980 - 146.000
BEESAT 3 27 Feb 06:28:54 06:32:49 87° 306° (NW) 06:36:49 437.485
AO-7 27 Feb 06:29:46 06:35:59 24° 313° (NW) 06:42:12 .
XW-2D 27 Feb 06:30:38 06:34:27 67° 101° (E) 06:38:14 145.860 - 145.880
AO-85 27 Feb 06:32:41 06:35:00 14° 329° (NNW) 06:37:15 145.980
XW-2B 27 Feb 06:35:43 06:39:34 75° 102° (ESE) 06:43:22 145.730 - 145.750
O/OREOS (USA 219) 27 Feb 06:36:24 06:39:11 16° 46° (NE) 06:41:56 437.305
XW-2C 27 Feb 06:44:27 06:48:19 85° 284° (WNW) 06:52:07 145.795 - 145.815
NUDT-PHONESAT 27 Feb 06:49:23 06:53:10 89° 83° (E) 06:56:55 437.300
DOVE 4 27 Feb 06:49:30 06:54:13 77° 285° (WNW) 06:59:13 437.250
HO-68 27 Feb 07:03:27 07:09:28 28° 93° (E) 07:15:25 435.675
LilacSat-2 27 Feb 07:03:31 07:07:16 49° 288° (WNW) 07:10:58 437.200
BEESAT 2 27 Feb 07:11:28 07:15:25 77° 308° (NW) 07:19:27 435.950
CUBEBUG 2 27 Feb 07:15:55 07:18:26 14° 88° (E) 07:20:56 437.445
ISS 27 Feb 07:17:02 07:19:43 23° 139° (SE) 07:22:23 437.550
CUTE-I 27 Feb 07:21:56 07:27:15 58° 289° (WNW) 07:32:30 437.470
SEEDS 27 Feb 07:30:10 07:33:33 24° 93° (E) 07:36:56 437.485
XW-2A 27 Feb 07:31:24 07:34:48 52° 100° (E) 07:38:11 145.665 - 145.685
SO-50 27 Feb 07:36:10 07:39:46 24° 246° (WSW) 07:43:20 436.795
Tancredo 1 27 Feb 07:37:23 07:40:22 34° 143° (SE) 07:43:21 437.200
STRAND 1 27 Feb 07:37:37 07:42:16 34° 264° (W) 07:46:57 437.568
UWE-3 27 Feb 07:48:34 07:51:51 19° 90° (E) 07:55:04 435.000/436.395/437.385
KAITUO 1B 27 Feb 07:51:34 07:54:18 19° 295° (WNW) 07:57:01 145.475/437.950
XW-2F 27 Feb 08:00:13 08:02:19 14° 298° (WNW) 08:04:24 145.980 - 146.000
ZACube-1 27 Feb 08:05:21 08:08:14 16° 89° (E) 08:11:03 437.345
XW-2D 27 Feb 08:06:35 08:08:08 12° 299° (WNW) 08:09:40 145.860 - 145.880
BEESAT 3 27 Feb 08:08:32 08:11:02 16° 327° (NNW) 08:13:33 437.485
CUTE 1.7 + AOD 2 27 Feb 08:11:45 08:15:59 84° 287° (WNW) 08:20:11 437.475
XW-2B 27 Feb 08:12:02 08:13:11 11° 300° (WNW) 08:14:21 145.730 - 145.750
O/OREOS (USA 219) 27 Feb 08:14:37 08:19:14 85° 246° (WSW) 08:23:50 437.305
FO-29 27 Feb 08:16:13 08:21:28 21° 51° (NE) 08:26:53 435.910
YUBILEINY 27 Feb 08:16:35 08:19:05 11° 69° (ENE) 08:21:36 435.215
PRISM 27 Feb 08:19:18 08:23:02 37° 69° (ENE) 08:26:48 437.425
DOVE 4 27 Feb 08:29:39 08:31:12 11° 302° (WNW) 08:32:47 437.250
AAUSAT CUBESAT 2 27 Feb 08:48:23 08:52:31 83° 104° (ESE) 08:56:36 437.432
HO-68 27 Feb 08:50:36 08:57:41 65° 292° (WNW) 09:04:43 435.675
CUBEBUG 2 27 Feb 08:50:49 08:55:36 75° 285° (WNW) 09:00:18 437.445
BEESAT 2 27 Feb 08:51:32 08:53:53 15° 328° (NNW) 08:56:16 435.950
AO-73 27 Feb 08:51:35 08:55:55 41° 97° (E) 09:00:09 145.935
ISS 27 Feb 08:52:38 08:55:56 69° 338° (NNW) 08:59:14 437.550
Oscar 11 27 Feb 08:55:48 08:59:53 39° 98° (E) 09:03:54 .
CUTE-I 27 Feb 09:05:07 09:06:11 11° 309° (NW) 09:07:16 437.470
SEEDS 27 Feb 09:05:32 09:09:19 34° 291° (WNW) 09:13:05 437.485
XW-2A 27 Feb 09:05:39 09:07:10 12° 297° (WNW) 09:08:40 145.665 - 145.685
TIGRISAT 27 Feb 09:05:48 09:10:08 46° 70° (ENE) 09:14:35 435.000
UNISAT 6 27 Feb 09:06:06 09:10:28 49° 71° (ENE) 09:14:58 437.425
Tancredo 1 27 Feb 09:13:22 09:16:34 52° 342° (NNW) 09:19:45 437.200
UWE-3 27 Feb 09:24:02 09:28:38 54° 288° (WNW) 09:33:06 435.000/436.395/437.385
ZACube-1 27 Feb 09:40:24 09:44:55 60° 287° (WNW) 09:49:20 437.345
EO-79 27 Feb 09:42:43 09:44:34 13° 59° (ENE) 09:46:26 145.935-145.965
CUTE 1.7 + AOD 2 27 Feb 09:50:26 09:51:06 10° 303° (WNW) 09:51:46 437.475
PRISM 27 Feb 09:55:19 09:58:27 21° 266° (W) 10:01:36 437.425
NANOSAT C BR1 27 Feb 09:57:28 10:00:05 16° 61° (ENE) 10:02:42 145.865
FO-29 27 Feb 09:57:56 10:05:14 78° 73° (ENE) 10:13:07 435.910
POLYITAN 1 27 Feb 09:59:38 10:02:34 18° 62° (ENE) 10:05:31 437.675
QB50P2 27 Feb 10:02:26 10:05:35 21° 63° (ENE) 10:08:46 145.880/145.840
DELFI C3 27 Feb 10:02:40 10:06:35 67° 102° (ESE) 10:10:29 145.870
YUBILEINY 27 Feb 10:05:17 10:13:51 58° 91° (E) 10:22:22 435.215
AIST 2D 27 Feb 10:13:19 10:16:29 31° 70° (ENE) 10:19:40 435.315
AAUSAT CUBESAT 2 27 Feb 10:25:58 10:27:21 11° 301° (WNW) 10:28:44 437.432
AO-73 27 Feb 10:28:17 10:31:55 24° 296° (WNW) 10:35:30 145.935
ISS 27 Feb 10:29:41 10:32:45 34° 357° (N) 10:35:48 437.550
CUBEBUG 2 27 Feb 10:29:53 10:31:21 11° 304° (NW) 10:32:49 437.445
Oscar 11 27 Feb 10:32:23 10:35:49 23° 295° (WNW) 10:39:13 .
HO-68 27 Feb 10:40:05 10:44:06 16° 314° (NW) 10:48:07 435.675
TIGRISAT 27 Feb 10:43:34 10:47:03 22° 268° (W) 10:50:37 435.000
UNISAT 6 27 Feb 10:44:07 10:47:28 20° 269° (W) 10:50:54 437.425
Tancredo 1 27 Feb 10:50:15 10:53:15 33° 2° (N) 10:56:14 437.200
DUCHIFAT 1 27 Feb 11:02:11 11:06:20 63° 73° (ENE) 11:10:33 145.980
ESTCUBE 1 27 Feb 11:13:59 11:17:55 29° 95° (E) 11:21:49 437.505/2401.250
EO-79 27 Feb 11:15:29 11:19:42 80° 255° (WSW) 11:24:00 145.935-145.965
SPROUT 27 Feb 11:24:25 11:24:59 10° 87° (E) 11:25:32 437.525
VELOX 1 27 Feb 11:30:53 11:33:28 15° 90° (E) 11:36:04 145.980
NANOSAT C BR1 27 Feb 11:31:11 11:35:21 59° 259° (W) 11:39:34 145.865
POLYITAN 1 27 Feb 11:33:51 11:37:59 51° 260° (W) 11:42:11 437.675
QB50P2 27 Feb 11:37:02 11:41:06 44° 261° (W) 11:45:12 145.880/145.840
AO-85 27 Feb 11:37:57 11:41:31 32° 44° (NE) 11:45:04 145.980
DELFI C3 27 Feb 11:39:07 11:40:52 13° 299° (WNW) 11:42:37 145.870
LO-87 27 Feb 11:41:02 11:44:37 66° 286° (WNW) 11:48:12 145.935 - 145.965
FO-29 27 Feb 11:45:11 11:51:01 25° 273° (W) 11:57:13 435.910
Oscar 19 27 Feb 11:45:42 11:49:53 26° 62° (ENE) 11:54:04 437.125/150
AIST 2D 27 Feb 11:47:10 11:49:47 19° 267° (W) 11:52:26 435.315
BUGSAT 1 27 Feb 11:50:27 11:54:31 74° 73° (ENE) 11:58:40 437.445
AO-7 27 Feb 11:59:28 12:03:02 13° 35° (NE) 12:06:37 .
50 SAT 27 Feb 12:01:06 12:03:31 18° 93° (E) 12:05:56 437.505
YUBILEINY 27 Feb 12:03:06 12:11:04 37° 293° (WNW) 12:19:04 435.215
ISS 27 Feb 12:06:24 12:09:38 49° 17° (NNE) 12:12:51 437.550
